Regional Weather Roundup
Issued by NWS

Home | Current Version | Previous Version | Text Only | Print | Product List | Glossary Off
Versions: 1 2 3 4 5 6 7 8 9 10 11 12 13 14 15 16 17 18 19 20 21 22 23 24 25 26 27 28 29 30 31 32 33 34 35 36 37 38 39 40 41 42 43 44 45 46 47 48 49 50

000
ASUS43 KMPX 052110
RWRMN
WEATHER ROUNDUP FOR MINNESOTA
NATIONAL WEATHER SERVICE TWIN CITIES/CHANHASSEN MN
300 PM CST THU MAR 05 2015


NOTE: "FAIR" INDICATES FEW OR NO CLOUDS BELOW 12,000 FEET WITH NO
SIGNIFICANT WEATHER AND/OR OBSTRUCTIONS TO VISIBILITY. N/A MEANS
CURRENT SKY AND/OR WEATHER CONDITIONS ARE NOT AVAILABLE.

MNZ060>063-068>070-052200-
   Twin Cities Metro

CITY           SKY/WX    TMP DP  RH WIND       PRES   REMARKS
TWIN CITIES    SUNNY     13  -3  49 VRB5      30.44F WCI   5
ST PAUL        SUNNY     15  -3  44 SW8       30.46F WCI   4
CRYSTAL        SUNNY     13  -1  54 SW12      30.43F WCI  -1
BLAINE         SUNNY     14   0  52 SW10      30.42F WCI   1
LAKEVILLE      SUNNY     10   0  61 SW7       30.44F WCI   0
EDEN PRAIRIE   SUNNY     15  -1  49 SW10      30.42F WCI   2
SOUTH ST PAUL  SUNNY     16  -1  46 SW8       30.44F WCI   6
LAKE ELMO      FAIR      14   0  52 SW9       30.44F WCI   2
$$
MNZ001>005-007-008-013>017-022>024-027-028-052200-
   Northwest Minnesota

CITY           SKY/WX    TMP DP  RH WIND       PRES   REMARKS
BEMIDJI        SUNNY     16  -3  42 S10G16    30.21F WCI   4
HALLOCK        SUNNY     19  10  68 S22       30.13F WCI   3
ROSEAU         SUNNY     16   3  57 S16       30.14F WCI   0
WARROAD        SUNNY     16   1  53 SW16      30.15F WCI   0
THIEF RVR FALL SUNNY     16  10  79 S20       30.18F WCI  -1
CROOKSTON      SUNNY     21   9  58 SW24      30.21F WCI   4
FOSSTON        SUNNY     18   1  49 S20       30.20F WCI   1
DETROIT LAKES  SUNNY     18   1  49 S10       30.25F WCI   6
MOORHEAD       SUNNY     19   3  49 S17G24    30.26F WCI   4
PARK RAPIDS    SUNNY     14  -3  47 S13       30.24F WCI   0
MAHNOMEN       FAIR      17   3  55 S22       30.22F WCI  -1
$$
MNZ006-009>011-018-025>026-052200-
   North Central Minnesota

CITY           SKY/WX    TMP DP  RH WIND       PRES   REMARKS
BAUDETTE       SUNNY     17  -3  41 S10       30.15F WCI   5
FLAG ISLAND    SUNNY      9   0  66 S17       30.13F WCI -10
INTL FALLS     SUNNY     16  -8  34 SW9       30.18F WCI   4
WASKISH        SUNNY     18  -2  41 SW10G21   30.20F WCI   6
BIG FORK       SUNNY     16  -6  38 SW8G18    30.22F WCI   5
LONGVILLE      SUNNY     16  -8  35 S8        30.27F WCI   5
GRAND RAPIDS   SUNNY     12  -4  48 S12G17    30.25F WCI  -2
CRANE LAKE     SUNNY     14 -11  31 W7        30.24S WCI   4
ORR            SUNNY     16 -11  29 SW10G18   30.19F WCI   3
COOK           SUNNY     14  -9  34 S10G17    30.22F WCI   1
WALKER         FAIR      14  -5  43 SW14      30.24F WCI  -1
$$
MNZ012-019>021-037-052200-
   Northeast Minnesota

CITY           SKY/WX    TMP DP  RH WIND       PRES   REMARKS
DULUTH         SUNNY     13  -8  39 W17       30.26F WCI  -4
ELY            SUNNY     12 -11  34 SW10G18   30.21F WCI  -1
HIBBING        SUNNY     13 -10  35 W10G17    30.25F WCI   0
EVELETH        SUNNY     14  -6  41 SW9G16    30.25F WCI   2
DULUTH HARBOR  SUNNY     16  -8  35 SW13      30.36F WCI   2
TWO HARBORS    SUNNY     18  -4  38 SW9       30.26F WCI   6
SILVER BAY     SUNNY     18  -9  29 SW5       30.25F WCI  11
GRAND MARAIS     N/A     15   8  73 SW23      30.29F WCI  -3
G MARAIS ARPRT SUNNY     10  -2  56 S10G17    30.17F WCI  -3
$$
MNZ029>031-032-039>041-046>048-054>057-064-052200-
   West Central Minnesota

CITY           SKY/WX    TMP DP  RH WIND       PRES   REMARKS
FERGUS FALLS   SUNNY     16   1  53 S16       30.32F WCI   0
WHEATON        SUNNY     16   5  62 S16       30.31F WCI   0
MORRIS         SUNNY     18   7  62 S15       30.30F WCI   3
ALEXANDRIA     SUNNY     13   0  56 S14       30.30F WCI  -2
ELBOW LAKE     FAIR      14   4  63 S16       30.29F WCI  -2
WADENA         SUNNY     12  -2  52 S9        30.28F WCI   0
GLENWOOD       SUNNY     16   1  53 S12       30.32F WCI   3
APPLETON       SUNNY     23   1  39 SW12      30.33F WCI  12
BENSON         FAIR      19   1  45 SW9       30.33F WCI   9
ORTONVILLE     SUNNY     19   3  49 S13       30.30F WCI   7
MADISON        SUNNY     21   9  58 S13G18    30.33F WCI   9
WILLMAR        FAIR      19   3  49 S6        30.37F WCI  11
$$
MNZ033>034-036-042>043-049>051-058-059-052200-
   Central Minnesota

CITY           SKY/WX    TMP DP  RH WIND       PRES   REMARKS
ST CLOUD       SUNNY     13  -1  54 S12       30.38F WCI  -1
SAUK CENTRE    FAIR      15   3  59 S12       30.33F WCI   1
PAYNESVILLE    SUNNY     13   1  59 S8        30.36F WCI   2
AITKIN         SUNNY     16  -6  38 S10       30.30F WCI   3
PINE RIVER     SUNNY     12  -2  52 S12       30.31F WCI  -2
BRAINERD       SUNNY     11  -5  48 SW12      30.32F WCI  -3
STAPLES        SUNNY     10  -6  48 S10G16    30.30F WCI  -3
LONG PRAIRIE   FAIR      14   0  52 S13       30.32F WCI   0
LITTLE FALLS   SUNNY     12   0  57 S12       30.36F WCI  -2
LITCHFIELD     SUNNY     16   3  57 CALM      30.39F
BUFFALO        SUNNY     12  -1  56 S7        30.43F WCI   1
MAPLE LAKE     SUNNY     14   3  60 S8        30.41F WCI   3
$$
MNZ037-044-045-052-053-052200-
   East Central Minnesota

CITY           SKY/WX    TMP DP  RH WIND       PRES   REMARKS
PRINCETON      SUNNY     14   0  52 S8        30.39F WCI   3
MORA           SUNNY     12  -4  48 W7        30.39F WCI   2
CAMBRIDGE      SUNNY     12   0  57 S7        30.39F WCI   2
RUSH CITY      SUNNY     12  -5  45 SW6       30.41F WCI   3
MOOSE LAKE     SUNNY     18  -6  35 CALM      30.31F
HINCKLEY       FAIR      12  -4  48 S12G18    30.38F WCI  -2
CLOQUET        SUNNY     12 -11  34 SW14      30.28F WCI  -3
MCGREGOR       SUNNY     12  -4  48 SW7G17    30.32F WCI   2
$$
MNZ071>073-080-081-089-090-097-098-052200-
   Southwest Minnesota

CITY           SKY/WX    TMP DP  RH WIND       PRES   REMARKS
MONTEVIDEO     SUNNY     23   7  50 SW10      30.35F WCI  12
GRANITE FALLS  SUNNY     21   7  53 S10       30.37F WCI  10
CANBY          SUNNY     20   7  55 SW12      30.33F WCI   9
MARSHALL       SUNNY     18   3  53 SW13G18   30.36F WCI   4
REDWOOD FALLS  SUNNY     18   2  49 S13       30.38F WCI   5
OLIVIA         SUNNY     19   7  58 S12       30.37F WCI   7
PIPESTONE      SUNNY     19   9  63 SW13      30.30F WCI   7
WINDOM         SUNNY     19   3  49 SW9       30.36F WCI   9
WORTHINGTON    SUNNY     19   5  53 SW13      30.36F WCI   7
JACKSON        SUNNY     19   3  49 SW10      30.37F WCI   8
TRACY          SUNNY     20   6  54 S9        30.35F WCI   9
SLAYTON        SUNNY     19   3  48 S8        30.33F WCI   9
$$
MNZ065>067-074>077-082>085-091>093-052200-
   South Central Minnesota

CITY           SKY/WX    TMP DP  RH WIND       PRES   REMARKS
MANKATO        SUNNY     16   1  53 S8        30.42F WCI   5
NEW ULM        SUNNY     18   3  53 S10       30.40F WCI   6
ST JAMES       SUNNY     19   3  49 S8        30.42F WCI   9
FAIRMONT       SUNNY     18   1  49 S9        30.40F WCI   6
GLENCOE        SUNNY     16   6  64 SW9       30.41F WCI   5
FARIBAULT      SUNNY     14   1  57 SW10      30.44F WCI   1
OWATONNA       SUNNY     12   1  62 SW12      30.43F WCI  -2
WASECA         SUNNY     14   3  62 SW12      30.44F WCI   0
ALBERT LEA     SUNNY     12   1  62 SW9       30.43F WCI   0
$$
MNZ078>079-086>088-094>096-052200-
   Southeast Minnesota

CITY           SKY/WX    TMP DP  RH WIND       PRES   REMARKS
ROCHESTER      SUNNY      8  -2  63 W8        30.43F WCI  -4
RED WING       SUNNY     12  -6  44 SW6       30.46S WCI   3
STANTON        SUNNY     14  -1  52 SW9       30.44S WCI   2
DODGE CENTER   SUNNY     10   1  67 SW10      30.42S WCI  -3
WINONA         SUNNY     14   0  52 SW8       30.49F WCI   3
AUSTIN         SUNNY      9   0  66 SW9       30.44F WCI  -5
PRESTON        SUNNY      7  -2  66 W8        30.45S WCI  -6
$$
ABBREVIATIONS USED IN REMARKS
   TC - TEMPERATURES IN CELSIUS
  WCI - WIND CHILL INDEX
   HX - HEAT INDEX
  VSB - VISIBILITY
$$



USA.gov is the U.S. government's official web portal to all federal, state and local government web resources and services.